Dewpoint
45 44 44 44 45 46 48 49 48 48 50 50 51 51 52 53 51 48 43 45 46 43 38 37 37 36 35 35 35 32 30 25 22 21 21 21 21 20 16 16 17 17 18 16 18 16 12 14 13 13 15 16 15 15
44 44 43 43 43 43 46 48 48 48 49 49 50 51 51 52 50 46 42 44 44 42 38 38 38 37 35 35 35 31 31 24 24 23 24 24 22 21 18 18 18 16 17 21 18 19 15 15 16 16 16 15 15 15
44 40 41 43 42 42 47 47 47 47 49 50 50 50 51 52 49 46 42 42 41 38 35 35 34 36 32 29 32 32 29 28 27 33 29 29 25 24 20 19 16 16 16 17 19 15 13 17 16 16 15 15 15 15
43 40 40 40 40 43 46 46 46 47 47 48 49 50 51 52 48 45 43 43 41 38 36 30 27 27 26 28 34 33 32 33 33 34 30 28 24 24 22 20 13 12 13 11 12 13 16 17 16 15 15 15 15 15
43 41 42 41 42 43 45 45 44 46 46 46 46 49 51 50 46 43 42 41 41 38 34 26 24 22 25 29 34 34 34 33 31 28 27 25 28 23 22 18 18 16 13 11 10 16 15 16 16 15 15 15 15 15
44 43 42 41 42 44 45 44 44 45 45 46 46 46 50 47 44 42 39 38 33 32 31 26 22 22 27 32 36 35 35 33 31 28 27 26 24 21 18 13 16 18 18 17 16 17 17 17 16 15 15 15 15 16
45 43 42 41 41 41 43 44 45 45 45 46 46 47 47 44 39 39 36 37 32 32 31 25 21 21 25 26 27 29 32 29 27 27 23 21 20 21 18 14 16 18 17 17 16 15 15 16 15 15 15 15 16 16
45 44 43 42 42 41 41 43 44 45 46 46 47 47 43 39 37 32 31 31 29 27 28 23 20 19 23 21 22 25 25 24 25 24 22 18 20 19 16 17 18 17 16 17 16 16 16 16 16 15 16 16 15 15
45 44 44 43 43 41 41 42 43 44 45 46 42 39 37 34 32 27 32 30 30 29 27 23 17 16 22 23 23 22 23 20 23 20 19 18 16 15 17 18 17 16 16 16 16 16 16 15 15 15 15 15 15 15
44 44 44 44 43 43 42 43 43 44 44 41 37 33 29 32 32 31 30 25 30 27 23 19 22 17 23 22 21 20 22 19 18 18 21 17 16 17 16 16 16 16 16 15 14 14 15 15 14 13 13 13 14 15
44 43 43 43 43 41 41 43 43 43 41 34 30 28 34 32 27 28 23 21 18 13 19 21 21 19 23 20 20 22 19 19 13 16 18 17 17 17 18 17 16 15 15 15 15 15 14 13 12 12 12 13 14 14
44 44 43 42 42 41 41 43 44 41 36 33 32 33 30 28 25 23 18 15 13 12 21 17 21 22 23 25 20 20 18 18 12 20 16 13 15 18 17 16 15 14 14 13 13 13 13 12 12 12 13 13 14 13
44 43 43 42 41 41 42 42 43 38 34 33 30 26 26 22 20 19 16 12 11 19 22 22 20 20 21 22 19 18 15 11 17 14 12 13 17 17 17 16 15 15 14 14 13 13 13 12 12 12 12 13 12 13
44 43 42 42 41 41 41 41 41 36 35 31 26 22 21 18 18 19 17 15 18 20 21 20 20 19 20 18 17 13 15 15 11 9 10 14 15 16 16 16 15 14 14 12 12 12 11 11 11 12 12 12 12 13
44 43 42 42 42 41 39 41 38 34 31 26 27 23 19 18 18 19 20 22 23 22 18 17 17 16 16 12 16 13 11 8 8 8 13 14 14 13 13 13 13 12 12 11 11 11 10 11 11 11 12 11 12 14
42 42 40 40 41 41 41 36 33 31 26 23 19 15 17 15 17 19 20 21 21 19 19 15 14 9 9 11 9 7 5 5 10 13 14 14 13 12 11 11 11 11 11 11 11 10 10 11 12 12 10 10 12 13
39 37 37 40 41 40 37 31 28 24 22 19 17 18 17 16 17 18 19 19 20 17 11 12 3 0 11 8 9 10 10 12 14 15 14 12 11 11 11 11 13 12 11 11 11 11 11 12 10 11 11 11 13 13
34 40 40 41 40 34 27 28 24 21 17 19 16 17 17 18 17 17 18 18 17 16 16 9 11 6 2 0 9 12 13 13 13 13 12 12 11 11 12 12 12 12 12 13 12 12 13 13 13 13 13 12 14 13
35 39 38 36 32 26 22 21 22 15 17 19 19 19 17 16 16 17 17 17 17 16 15 12 8 9 10 12 12 12 13 13 12 11 11 12 12 12 12 12 13 13 13 13 14 14 14 14 14 14 12 13 13 12
32 32 32 31 29 22 18 19 24 18 15 17 19 17 16 16 16 13 13 15 14 9 7 8 10 10 11 10 12 12 11 11 10 10 13 14 14 13 14 14 13 13 14 13 12 13 14 12 13 14 12 13 12 11
28 28 28 24 20 16 14 16 16 17 16 13 16 17 14 14 11 9 9 10 7 8 7 9 8 8 8 9 10 11 10 11 10 10 10 9 14 14 13 12 13 14 14 12 11 11 12 11 12 13 11 11 13 12
23 27 22 24 16 15 13 13 15 16 14 13 13 13 12 11 8 6 8 7 6 7 9 10 10 9 9 10 10 10 9 10 11 12 15 14 12 12 12 12 12 11 13 12 11 12 12 12 14 12 11 11 10 9
18 16 12 12 6 9 12 12 11 12 12 10 10 6 7 6 5 6 5 6 7 9 10 9 9 9 9 9 9 10 10 11 11 10 10 10 11 14 14 11 11 10 9 10 12 12 12 12 12 12 12 10 9 9
12 6 3 3 3 4 7 6 9 8 9 7 4 4 5 5 4 7 6 7 8 10 9 9 10 9 10 10 11 10 11 11 12 10 10 10 11 12 12 11 10 10 11 11 12 12 11 10 10 9 10 10 8 8
-6 2 1 -0 7 2 -0 1 3 1 0 4 2 3 3 2 5 6 7 6 8 9 9 10 11 11 10 10 10 11 11 11 10 9 9 10 10 11 13 12 10 10 11 9 10 11 10 9 8 7 8 11 6 6
-4 5 2 2 1 -2 1 -3 -1 -0 1 0 1 1 1 3 -1 2 7 7 8 9 8 9 10 9 9 10 10 10 10 11 11 10 9 10 9 9 9 9 9 10 11 11 11 10 9 9 7 7 5 5 7 4
-5 0 5 7 6 4 2 4 4 1 -1 -2 1 2 -1 -8 -2 5 6 5 6 7 8 8 8 9 8 10 11 11 11 10 10 10 10 10 9 9 9 7 6 8 10 11 11 10 8 7 6 6 5 4 4 4
3 3 -4 1 1 2 0 1 1 1 2 4 3 -1 -6 -5 2 4 3 3 3 4 5 5 6 7 8 8 9 9 10 9 9 9 9 10 10 8 7 7 7 10 11 12 13 9 7 6 5 4 3 2 3 4
2 3 1 -1 -1 -1 -2 1 2 3 3 4 2 2 2 1 1 1 2 3 3 4 5 5 5 4 6 6 7 7 8 8 7 7 7 7 8 9 6 5 4 6 7 10 14 11 7 5 4 3 4 4 4 3
2 3 -1 -2 -2 -2 -4 -3 -1 2 4 3 4 3 2 0 1 2 2 1 2 2 1 1 2 4 5 6 6 7 8 8 9 8 7 7 8 7 4 3 3 4 5 5 5 6 7 4 4 2 1 2 3 1
3 1 -1 -1 -1 -2 -2 -1 0 2 0 1 -0 1 0 -1 1 2 1 0 -0 -0 2 2 3 2 4 5 5 6 6 9 9 10 10 10 9 7 7 5 6 7 7 6 5 4 3 3 2 2 1 1 1 1
-0 -0 -0 -0 1 -1 -3 -1 -1 -0 -0 1 -0 -2 0 1 1 0 1 0 1 1 4 3 3 2 4 4 5 6 9 7 8 9 10 11 11 11 11 10 9 9 9 8 7 7 5 4 3 2 1 1 0 -1
-1 -2 -2 -1 0 0 -1 -2 -2 -0 -2 -1 -2 -3 -4 -1 1 0 1 1 1 1 2 2 2 3 3 3 4 5 7 7 8 13 14 17 18 14 12 11 10 10 9 8 8 7 6 5 5 4 2 1 -0 -1
Wind_Speed
8 7 5 4 3 2 1 2 2 2 2 1 2 3 3 3 22 7 3 4 4 4 3 6 6 6 4 5 7 6 3 2 4 7 6 5 5 4 3 4 5 9 7 8 5 6 9 2 0 2 0 1 5 8
11 9 8 6 3 2 3 4 1 3 3 1 2 1 1 2 19 8 4 3 3 4 3 2 2 2 2 2 6 9 2 4 8 5 5 2 5 3 5 7 4 7 9 4 10 6 2 3 2 6 5 3 6 9
13 9 8 8 5 4 4 6 4 2 2 5 4 5 4 12 19 6 6 8 5 5 3 2 1 1 2 3 3 5 3 3 4 1 3 3 7 4 6 8 4 3 3 6 1 1 2 10 9 7 6 5 8 9
17 14 10 7 8 6 5 5 3 2 0 3 7 7 9 18 19 11 5 7 4 5 2 1 1 1 4 4 2 1 6 6 5 3 3 5 5 6 5 5 5 4 3 4 5 1 9 7 7 4 5 6 9 10
19 16 12 9 8 7 7 6 3 1 2 3 3 6 7 23 16 12 7 3 1 3 3 3 2 2 3 1 4 8 10 6 3 4 4 5 3 3 3 3 8 7 7 7 7 4 1 1 3 7 9 10 9 12
22 20 17 12 9 7 7 6 6 5 5 5 7 9 9 26 20 6 1 3 3 4 5 3 1 2 3 5 6 7 7 3 3 4 3 3 2 3 4 4 1 2 6 3 2 0 1 3 6 10 9 10 11 12
24 21 19 16 12 9 7 7 8 8 7 8 8 6 28 23 6 4 4 3 10 3 4 2 1 0 3 3 2 2 1 1 2 2 4 2 4 4 4 6 4 6 6 6 5 3 4 7 5 9 10 11 12 11
25 23 22 19 16 12 8 8 8 8 9 7 4 25 22 22 14 5 5 6 5 7 4 3 1 0 2 4 4 2 4 2 2 2 1 3 1 2 6 3 5 4 5 6 5 4 2 4 8 10 11 12 14 13
27 25 23 21 18 14 11 9 9 10 7 28 30 23 8 6 3 6 11 9 9 4 6 5 7 6 4 3 3 2 2 3 0 2 4 5 4 8 4 7 4 3 2 1 4 3 7 8 8 10 12 13 15 16
28 26 24 21 18 14 12 11 11 12 31 31 8 6 4 4 10 5 6 2 4 4 2 5 6 7 5 3 4 5 1 3 3 4 1 4 5 5 6 9 6 4 3 4 4 4 9 10 11 13 13 12 12 15
25 26 26 23 20 16 14 11 9 34 22 2 5 4 7 4 2 3 3 3 2 2 4 3 3 7 2 4 4 2 4 2 2 2 3 3 4 3 5 6 4 4 4 5 4 3 5 6 9 12 13 12 12 14
26 26 25 25 21 18 16 14 27 21 6 10 17 10 4 2 3 4 5 2 6 6 6 8 5 5 4 2 3 2 4 2 4 1 2 4 2 5 5 4 3 4 5 5 6 6 7 8 10 11 12 12 12 14
24 24 25 24 22 20 19 16 33 23 26 3 5 5 7 2 4 8 11 6 6 9 9 8 7 5 3 3 4 3 4 6 1 2 4 2 5 4 3 2 2 5 5 5 6 6 8 9 9 10 12 12 13 14
23 25 24 23 22 21 20 16 33 19 4 4 7 9 10 7 9 7 8 8 4 8 16 14 7 4 3 3 3 4 1 2 2 3 5 5 6 5 2 1 2 3 5 6 7 8 8 9 11 11 10 12 12 14
24 25 25 21 22 23 20 23 28 5 4 2 5 7 8 4 4 5 8 7 4 13 15 11 6 4 3 4 2 4 3 4 6 4 2 7 4 2 1 2 2 3 5 6 6 8 9 10 10 12 12 13 12 12
23 19 19 21 23 25 23 26 7 4 3 3 4 4 8 10 9 6 11 12 4 10 6 5 4 3 2 7 5 6 6 7 4 3 5 6 3 2 2 3 3 3 4 6 7 7 8 9 10 12 12 12 14 12
28 12 19 25 26 29 36 9 4 4 6 3 3 5 5 7 8 9 11 7 4 5 4 4 5 3 5 3 3 4 4 4 8 7 6 4 1 2 1 2 3 4 5 6 7 8 8 8 7 8 14 15 14 13
1 11 27 30 27 23 5 6 5 5 6 6 5 4 6 8 6 6 5 3 5 6 5 4 7 4 4 5 3 5 4 5 8 7 4 2 2 1 1 3 4 5 6 7 7 7 7 7 9 10 10 13 11 12
16 27 39 40 23 10 5 3 4 7 6 3 3 7 7 6 8 6 9 7 6 4 10 4 5 4 4 2 4 5 6 4 4 3 3 2 2 0 2 4 4 3 5 6 7 8 7 7 7 8 11 10 9 11
31 30 30 24 11 6 6 5 4 7 5 2 4 7 6 4 3 5 9 6 4 3 4 3 3 4 4 3 2 6 5 4 3 5 5 2 1 2 2 2 4 6 5 4 7 8 5 9 8 8 10 8 9 10
15 5 13 8 7 12 7 4 5 5 6 6 3 4 5 3 3 5 4 8 6 4 3 2 4 5 5 5 4 5 5 4 3 3 2 0 4 2 2 4 6 4 3 5 7 9 9 9 9 6 8 8 7 8
5 5 5 6 7 6 7 8 6 4 5 5 4 4 5 3 3 4 6 6 4 1 2 3 6 6 7 5 3 4 3 2 1 1 2 2 1 1 2 4 5 6 5 6 8 8 8 8 8 6 8 7 8 8
5 5 7 7 7 6 3 3 5 3 5 5 3 4 4 2 1 4 4 2 2 2 2 4 5 4 7 4 3 3 2 3 3 2 2 3 3 1 1 2 4 5 7 7 8 8 8 9 8 7 7 7 7 7
8 7 7 6 7 5 2 4 3 5 5 3 4 4 2 2 4 3 3 1 1 2 3 5 6 6 4 3 3 3 1 0 0 2 2 2 2 1 0 1 2 4 4 6 6 7 6 7 7 7 7 7 7 7
7 9 6 7 4 5 5 4 3 4 5 3 4 3 2 1 3 2 2 3 4 4 4 4 4 3 4 4 4 3 1 1 1 2 1 2 2 2 1 1 2 4 5 6 7 7 6 6 6 6 7 7 9 9
9 9 6 3 4 5 3 5 3 5 5 4 3 2 1 3 2 2 2 3 2 3 4 5 6 5 4 3 5 4 1 1 1 1 1 1 1 1 0 1 0 1 6 4 4 6 6 5 5 5 7 9 9 9
6 6 5 5 3 6 8 6 5 6 4 3 4 3 2 3 2 2 2 3 2 2 3 3 3 5 7 6 6 3 3 3 2 2 2 1 1 1 1 1 1 2 6 4 3 2 2 3 4 4 5 5 6 6
4 7 7 5 8 8 6 5 4 4 3 1 3 3 2 2 3 2 1 2 2 2 2 3 4 4 3 3 2 2 1 1 1 2 2 1 0 2 2 2 3 5 3 5 2 1 3 3 4 4 4 5 5 5
7 7 2 9 6 9 8 5 3 3 3 1 3 3 3 2 1 1 2 2 3 2 4 3 3 5 2 1 0 1 1 1 1 1 2 1 1 1 2 2 3 4 4 4 5 6 6 5 5 5 4 3 3 4
6 7 5 6 6 5 4 3 2 2 3 3 2 4 3 3 2 2 3 4 3 3 2 1 2 3 3 2 2 3 2 1 2 2 1 0 2 2 1 1 2 3 4 5 6 5 5 6 5 4 5 5 5 6
4 3 6 6 5 2 2 4 3 2 3 4 5 5 4 3 1 3 5 4 2 2 2 2 3 2 3 4 4 5 4 4 4 2 4 4 3 4 4 3 2 2 3 5 5 5 4 4 4 3 4 5 6 7
6 6 4 5 3 1 3 2 2 3 4 4 4 4 2 2 2 2 5 5 3 4 4 3 4 2 2 2 2 2 5 5 6 5 8 7 8 7 6 6 5 4 4 3 3 3 2 2 1 2 3 4 6 7
3 4 5 5 3 2 2 2 4 3 5 3 4 3 2 1 1 0 1 1 0 0 0 2 3 4 4 4 4 5 5 7 9 9 10 14 5 10 10 9 9 8 6 5 4 3 2 2 2 3 4 5 6 7
Wind_Direction
194 193 183 202 196 178 316 239 146 59 23 6 72 59 42 106 160 133 126 178 175 165 181 199 178 159 152 195 191 151 121 215 169 199 206 228 221 223 254 230 199 200 195 208 195 239 269 331 0 227 195 5 5 342
190 204 205 198 222 236 253 192 164 191 203 142 335 172 216 300 151 121 106 69 24 100 114 36 35 353 327 137 154 176 220 167 181 189 214 196 231 209 218 263 220 238 207 213 205 237 123 46 114 98 76 11 354 341
183 198 201 200 219 237 256 156 134 106 192 181 194 231 228 160 160 118 126 144 97 120 65 139 215 305 336 23 321 184 224 171 153 92 134 201 237 171 213 232 247 236 189 236 265 193 125 122 94 72 58 25 346 342
186 183 192 209 207 199 168 135 132 101 211 197 207 222 212 173 147 129 142 181 113 118 200 192 157 34 342 346 338 12 126 81 98 96 173 210 222 195 234 250 233 230 191 218 251 148 108 76 52 44 28 11 347 332
188 191 193 204 213 198 176 172 162 192 328 250 221 226 220 150 137 106 102 165 55 151 197 171 107 356 6 98 103 116 121 118 142 166 187 221 240 244 249 269 242 208 231 222 252 143 189 183 56 29 5 351 342 330
190 190 191 199 207 212 206 200 209 214 239 269 248 213 187 147 138 113 172 214 181 145 139 204 0 22 43 114 125 145 142 133 143 162 189 227 233 209 256 248 252 94 69 55 171 47 280 301 119 10 350 346 338 336
192 192 193 195 195 207 218 230 229 230 240 263 258 215 148 146 102 145 189 172 158 114 122 126 199 0 87 111 117 113 114 150 133 202 230 206 209 211 243 243 160 120 102 86 58 4 139 51 337 349 352 340 335 323
193 193 195 195 196 202 215 234 237 239 250 276 195 134 117 107 111 72 30 107 102 99 98 162 108 101 192 176 149 166 155 145 197 237 254 205 187 233 260 169 141 107 107 103 39 40 50 33 6 351 342 338 340 339
195 194 196 196 196 199 208 227 240 242 265 126 121 114 84 48 111 134 112 81 67 101 166 162 178 194 184 166 131 116 156 202 103 219 238 172 203 227 280 187 157 43 109 328 341 57 37 19 350 340 340 342 338 333
196 193 195 194 192 196 210 226 237 266 138 131 106 73 75 9 102 97 27 99 33 5 64 176 134 166 168 154 149 128 96 204 230 232 170 226 245 104 76 86 102 87 54 23 25 350 350 348 345 343 338 328 324 324
200 200 198 191 185 192 204 215 236 147 140 91 110 88 115 51 65 39 101 163 161 201 185 163 143 136 219 143 155 181 179 174 220 245 203 243 224 168 128 104 94 79 48 38 41 1 2 339 341 335 331 331 329 327
199 198 196 190 185 195 203 197 163 160 167 166 119 114 109 112 78 126 186 169 201 206 160 152 146 133 142 131 122 162 157 131 238 129 238 258 196 136 135 134 101 68 39 30 20 4 359 350 346 334 330 330 329 322
199 196 193 190 186 196 207 203 181 138 122 91 71 97 149 140 182 199 190 208 201 168 166 153 133 123 106 83 94 123 161 208 69 200 235 237 150 131 136 120 82 62 38 21 1 1 354 344 342 338 327 329 329 328
198 194 189 192 191 198 211 191 152 138 127 167 155 154 206 182 217 187 181 161 157 143 141 131 113 123 124 115 129 147 175 122 200 229 234 175 171 144 109 30 47 16 14 356 347 343 337 337 330 328 328 327 329 332
195 196 198 193 188 206 218 175 149 69 69 176 129 192 191 131 83 120 110 107 85 137 132 114 89 109 99 110 106 122 146 238 219 230 185 156 139 109 41 351 355 351 349 342 332 327 323 325 327 329 336 332 333 332
205 208 207 197 196 211 170 122 85 77 58 57 58 105 120 108 132 117 121 121 73 124 95 75 106 110 151 149 153 197 164 219 198 166 144 131 141 178 332 322 313 322 325 317 316 310 308 319 327 326 330 343 345 340
213 219 196 196 196 187 140 110 90 73 61 59 15 87 80 88 146 129 136 138 136 121 134 130 143 162 127 117 189 195 219 158 150 128 112 134 164 328 328 314 322 328 326 321 317 320 316 306 319 343 350 345 342 342
56 195 191 188 158 118 55 45 89 87 71 50 92 50 59 44 98 94 99 103 132 140 143 146 125 138 168 171 196 183 151 121 106 123 130 114 100 97 298 315 316 310 305 307 309 315 323 315 338 340 334 336 336 346
81 102 120 129 125 102 101 62 39 93 78 75 65 61 72 71 39 49 80 81 90 104 116 97 110 143 168 164 149 141 137 144 157 161 127 117 130 123 307 310 309 305 311 321 324 326 327 340 344 335 339 341 351 347
74 71 73 61 51 90 86 65 59 83 112 111 53 63 72 66 65 51 56 32 67 61 65 73 122 151 149 131 94 137 135 126 128 133 128 107 237 259 237 313 334 328 335 359 0 356 24 4 350 350 347 2 358 346
77 39 55 64 56 60 79 91 78 95 104 84 76 76 86 62 51 41 25 348 63 52 94 95 116 108 90 101 94 107 91 94 105 115 141 217 314 238 96 24 5 9 5 17 12 5 7 355 336 354 354 352 351 341
99 137 76 63 77 65 75 24 93 90 78 101 85 65 88 80 41 10 330 50 64 62 89 120 123 128 120 118 108 80 97 74 52 12 334 23 10 6 1 15 17 18 27 35 14 2 352 343 340 17 0 4 3 353
84 44 55 50 79 65 74 3 80 39 109 126 100 88 66 80 346 338 69 53 75 38 86 105 115 98 115 114 100 83 80 71 103 110 20 347 332 260 112 50 38 23 7 360 354 353 354 357 354 11 2 11 12 14
45 52 48 57 64 101 114 64 70 84 97 89 84 98 100 111 342 63 93 83 133 148 112 121 126 113 91 90 119 130 131 43 185 142 33 9 51 95 102 84 54 34 8 337 360 8 14 10 14 14 15 23 28 26
72 16 44 67 65 100 91 87 77 83 98 98 105 112 144 50 136 125 141 162 163 149 138 131 112 103 138 141 158 155 48 89 137 183 344 358 325 309 224 151 81 50 16 23 16 7 13 23 27 31 28 34 42 33
71 10 39 51 47 96 102 106 95 106 108 94 95 148 172 154 111 124 151 152 122 143 149 155 158 143 124 142 162 170 245 328 137 176 256 18 39 89 119 18 12 236 15 9 0 2 15 26 33 46 50 37 34 37
70 48 32 33 94 105 93 75 94 90 89 100 150 130 125 93 120 165 147 30 101 90 84 83 124 154 157 142 121 109 91 76 106 134 147 114 48 25 359 285 274 297 320 327 341 353 11 47 54 51 65 58 43 34
80 33 76 1 61 33 99 75 62 69 86 103 133 79 99 120 147 162 86 25 41 27 85 77 72 89 120 122 105 95 117 24 344 327 293 272 227 24 4 338 316 316 339 295 244 109 98 98 90 80 66 54 36 23
50 357 42 54 60 52 45 56 85 55 5 18 98 104 113 68 35 50 25 352 346 57 120 122 53 14 77 44 0 237 207 174 118 103 59 11 325 272 358 23 27 24 16 27 105 137 131 111 99 86 75 47 11 5
21 357 81 55 57 52 9 2 58 344 24 69 95 107 86 71 36 349 17 36 88 97 87 61 22 62 97 120 96 69 36 191 207 193 176 305 307 254 227 118 73 51 61 83 81 68 75 63 68 54 50 41 32 25
347 46 76 61 80 34 339 326 322 37 43 46 27 83 100 135 84 30 35 20 27 43 88 102 93 61 95 92 101 122 92 31 21 328 269 244 213 213 207 193 172 127 108 104 98 92 87 76 64 50 36 24 12 8
32 49 100 99 107 336 2 48 40 60 28 48 30 39 70 85 70 356 359 8 71 76 74 97 137 123 17 355 335 330 351 339 333 318 300 276 241 226 211 200 193 182 168 151 136 124 112 100 53 14 359 353 349 346
71 61 72 98 104 110 29 72 42 68 43 51 34 21 46 70 128 258 324 8 54 178 355 332 307 300 301 299 299 307 325 326 319 325 328 334 205 205 206 207 202 200 200 205 201 197 210 251 285 295 306 309 317 324